Weather Roundup
Issued by NWS

Home | Current Version | Previous Version | Graphics & Text | Print | Product List | Glossary Off
Versions: 1 2 3 4 5 6 7 8 9 10 11 12 13 14 15 16 17 18 19 20 21 22 23 24 25 26 27 28 29 30 31 32 33 34 35 36 37 38 39 40 41 42 43 44 45 46 47 48 49 50

000
NZUS93 KARX 030210
HRRWXR

CURRENT HOURLY OBSERVATIONS ACROSS
MUCH OF THE UPPER MISSISSIPPI VALLEY
NATIONAL WEATHER SERVICE LA CROSSE WI
800 PM CST MON MAR 02 2015


...SOUTHEAST MINNESOTA...


CITY           SKY/WX    TMP DP  RH WIND       PRES   REMARKS
ROCHESTER      CLOUDY    19  11  70 S12       30.18F WCI   7
ROCHESTER/MAYO CLOUDY    20   8  60 SE9       30.19F WCI   9
WINONA         CLOUDY    27  12  54 CALM      30.25F
AUSTIN         CLOUDY    19  12  73 S7        30.17F WCI  10
ALBERT LEA     CLOUDY    21  16  79 SE10      30.15F WCI  10
DODGE CENTER   CLOUDY    19  16  86 S12       30.16F WCI   7
PRESTON        CLOUDY    19  10  67 S8        30.20F WCI   9
OWATONNA       CLOUDY    19  12  73 SE14      30.15F WCI   6
FARIBAULT      CLOUDY    21  12  68 SE12      30.16F WCI   9
$$

...ELSEWHERE IN MINNESOTA...


CITY           SKY/WX    TMP DP  RH WIND       PRES   REMARKS
MINNEAPOLIS    CLOUDY    21  10  62 S8        30.17F WCI  11
INTNL FALLS    CLEAR     21   3  45 SE8       29.94F WCI  11
DULUTH         PTCLDY    20   4  50 S13       30.08F WCI   7
RED WING       CLOUDY    23   9  54 SE8       30.19F WCI  14
REDWOOD FALLS  CLOUDY    25  19  78 S17       30.07F WCI  12
MANKATO        CLOUDY    21  12  68 SE18      30.13F WCI   6
FAIRMONT       CLOUDY    23  16  74 SE18      30.10F WCI   9
$$

...SOUTHWEST WISCONSIN...


CITY           SKY/WX    TMP DP  RH WIND       PRES   REMARKS
LA CROSSE      CLOUDY    27  13  55 S9        30.26F WCI  18
PRAIRIE DU CHI CLOUDY    26  13  58 SE6       30.27F WCI  19
BOSCOBEL       CLOUDY    25  13  60 SE5       30.29F WCI  19
LONE ROCK      CLOUDY    25  13  60 S6        30.29F WCI  18
PLATTEVILLE    CLOUDY    25  18  76 SE7       30.27F WCI  17
FORT MC COY    CLOUDY    25  11  54 SE3       30.25F
CAMP DOUGLAS   CLOUDY    27  12  54 SE5       30.24F WCI  21
VIROQUA        CLOUDY    24  14  66 S7        30.23F WCI  15
WIS DELLS      CLOUDY    24  11  58 S9        30.27S WCI  15
$$

...ELSEWHERE IN WISCONSIN...


CITY           SKY/WX    TMP DP  RH WIND       PRES   REMARKS
MILWAUKEE      CLOUDY    25  14  63 S7        30.33F WCI  17
MADISON        CLOUDY    24  11  57 S10       30.29F WCI  14
GREEN BAY      PTCLDY    24  13  62 S5        30.29F WCI  18
EAU CLAIRE     CLOUDY    24   8  50 S8        30.19F WCI  15
BLACK RVR FLS  CLOUDY    26   6  43 CALM      30.24F
MEDFORD        MOCLDY    18   4  53 SE6       30.17F WCI  10
WAUSAU         MOCLDY    20   3  48 SE5       30.19F WCI  13
WIS RAPIDS     CLOUDY    24   5  44 S6        30.25F WCI  17
MARSHFIELD     CLOUDY    22   8  55 S3        30.20F
RICE LAKE      CLOUDY    22   8  54 S7        30.19F WCI  14
$$

...NORTHEAST IOWA...


CITY           SKY/WX    TMP DP  RH WIND       PRES   REMARKS
DECORAH        CLOUDY    23  14  68 S8        30.22F WCI  14
MASON CITY     CLOUDY    21  13  71 SE14      30.19F WCI   8
CHARLES CITY   CLOUDY    21  14  73 SE12      30.21F WCI   9
OELWEIN        CLOUDY    23  14  68 SE10      30.23F WCI  12
$$

...ELSEWHERE IN IOWA...


CITY           SKY/WX    TMP DP  RH WIND       PRES   REMARKS
DES MOINES     CLOUDY    30  17  58 SE8       30.17F WCI  22
IOWA CITY      CLOUDY    26  17  68 E9        30.27F WCI  17
FORT DODGE     CLOUDY    27  18  69 SE8G16    30.14F WCI  18
$$

...NORTHERN ILLINOIS...


CITY           SKY/WX    TMP DP  RH WIND       PRES   REMARKS
CHICAGO-OHARE  CLOUDY    27  16  63 SW7       30.34F WCI  19
CHICAGO-MIDWAY CLOUDY    28  14  55 S12G20    30.36F WCI  18
MOLINE         CLOUDY    27  18  69 E8        30.28F WCI  19
ROCKFORD       CLOUDY    25  17  72 S12       30.34F WCI  14
PEORIA         CLOUDY    28  19  69 SE9       30.31F WCI  19
$$

NOTE: "FAIR" INDICATES FEW OR NO CLOUDS BELOW 12,000 FEET WITH NO
SIGNIFICANT WEATHER AND/OR OBSTRUCTIONS TO VISIBILITY. WIND
SPEEDS ARE IN MILES-PER-HOUR.



USA.gov is the U.S. government's official web portal to all federal, state and local government web resources and services.